Regional Weather Roundup
Issued by NWS

Home | Current Version | Previous Version | Text Only | Print | Product List | Glossary Off
Versions: 1 2 3 4 5 6 7 8 9 10 11 12 13 14 15 16 17 18 19 20 21 22 23 24 25 26 27 28 29 30 31 32 33 34 35 36 37 38 39 40 41 42 43 44 45 46 47 48 49 50

000
ASUS44 KMEG 041600
RWRTN
TENNESSEE HOURLY STATE WEATHER ROUNDUP
NATIONAL WEATHER SERVICE MEMPHIS TN
1100 AM CDT MON MAY 04 2015

TNZ002-004-019-021-049-052-054-088>092-041700-
WEST TENNESSEE

CITY           SKY/WX    TMP DP  RH WIND       PRES   REMARKS
MEMPHIS INTL   SUNNY     80  61  52 S8        30.23R
NWS MEMPHIS      N/A     80 N/A N/A MISG        N/A
JACKSON        SUNNY     78  59  51 SW8       30.24R
DYERSBURG      SUNNY     81  52  36 SW8       30.23R
PARIS          SUNNY     77  57  50 VRB7      30.24S
LEXINGTON      SUNNY     77  57  50 VRB6      30.25S
$$

TNZ008-025-027-028-033-062-065-066-041700-
NORTH MIDDLE TENNESSEE

CITY           SKY/WX    TMP DP  RH WIND       PRES   REMARKS
NASHVILLE      PTSUNNY   79  52  38 SW6       30.27S
CLARKSVILLE    MOSUNNY   76  58  53 S7        30.24R
COOKEVILLE     SUNNY     79  55  44 SW12      30.30R
CROSSVILLE     MOSUNNY   74  45  35 VRB7      30.33S
$$

TNZ061-075-076-078-094-096-097-041700-
SOUTH MIDDLE TENNESSEE

CITY           SKY/WX    TMP DP  RH WIND       PRES   REMARKS
FAYETTEVILLE     N/A     75  54  46 SW5       30.30S
TULLAHOMA      SUNNY     75  52  43 SW8       30.31S
WINCHESTER     SUNNY     77  54  44 SW7       30.31S
SHELBYVILLE    CLOUDY    77  57  50 VRB5      30.31R
$$

TNZ017-018-042-046-047-041700-
NORTHEAST TENNESSEE

CITY           SKY/WX    TMP DP  RH WIND       PRES   REMARKS
TRI CITIES     SUNNY     75  50  41 W6        30.33R
ELIZABETHTON   SUNNY     75  48  38 W9        30.33R
$$

TNZ012-013-036-069-073-074-041700-
CENTRAL EAST TENNESSEE

CITY           SKY/WX    TMP DP  RH WIND       PRES   REMARKS
KNOXVILLE      MOSUNNY   76  52  43 VRB6      30.31R
OAK RIDGE      SUNNY     76  52  43 CALM      30.32S
GATLINBURG     SUNNY     77  48  36 VRB6      30.31R
$$

TNZ083-085-099-041700-
SOUTHEAST TENNESSEE

CITY           SKY/WX    TMP DP  RH WIND       PRES   REMARKS
CHATTANOOGA    MOSUNNY   76  52  43 SE7       30.31F
$$

SKY/WX REPORTED AS FAIR MEANS FEW OR NO CLOUDS BELOW
12 THOUSAND FEET.



USA.gov is the U.S. government's official web portal to all federal, state and local government web resources and services.